Location: Dattensoll
(49.9928°N, 9.8954°E)
Time: 00:57:05
(UTC+00:00)

Meteor 2-10 - Pass Details

Date: 19 May 2025
Orbit: 737 x 866 km, 81.2° (Epoch: 15 June)

Event Time Altitude Azimuth Distance (km) Brightness Sun altitude
Rises 21:01:49 0° 347° (NNW) 3,457 8.9 -13.9°
Reaches altitude 10° 21:04:17 10° 346° (NNW) 2,509 7.9 -14.1°
Maximum altitude 21:10:00 83° 261° (W) 859 4.2 -14.6°
Enters shadow 21:13:59 20° 174° (S) 1,848 5.4 -14.9°
